EDT,Max TemperatureF,Mean TemperatureF,Min TemperatureF,Max Dew PointF,MeanDew PointF,Min DewpointF,Max Humidity, Mean Humidity, Min Humidity, Max Sea Level PressureIn, Mean Sea Level PressureIn, Min Sea Level PressureIn, Max VisibilityMiles, Mean VisibilityMiles, Min VisibilityMiles, Max Wind SpeedMPH, Mean Wind SpeedMPH, Max Gust SpeedMPH,PrecipitationIn, CloudCover, Events, WindDirDegrees
2012-10-1,66,60,55,55,53,50,87,74,63,29.96,29.81,29.76,10,10,10,17,9,31,0.00,2,,240
2012-10-2,73,64,55,61,57,52,90,79,57,30.08,30.04,29.97,10,10,10,10,3,,0.01,5,Rain,230
2012-10-3,64,63,62,64,63,57,100,97,81,30.14,30.09,30.05,10,2,0,8,5,,0.05,8,Fog-Rain,106
2012-10-4,64,62,60,64,62,59,100,98,93,30.14,30.09,30.02,10,2,0,7,2,,0.02,8,Fog-Rain,26
2012-10-5,70,64,59,63,60,57,100,91,78,30.05,30.00,29.96,10,7,2,8,3,,0.00,6,,219
2012-10-6,73,64,57,65,62,52,100,91,76,29.95,29.88,29.80,10,7,0,17,6,26,0.07,3,Fog-Rain,215
2012-10-7,60,52,46,51,47,43,94,80,58,30.07,30.03,29.93,10,9,3,6,3,,0.20,5,Rain,345
2012-10-8,57,50,46,49,46,43,100,82,63,30.33,30.19,30.05,10,9,3,9,4,22,0.08,6,Rain,334
2012-10-9,57,54,53,54,52,48,100,90,77,30.31,30.20,30.12,10,6,2,17,12,25,0.38,8,Rain,59
2012-10-10,64,60,55,61,58,51,97,90,75,30.11,29.91,29.75,10,10,8,13,8,23,0.03,7,Rain,121
2012-10-11,60,53,46,49,40,36,74,61,42,30.17,30.03,29.81,10,10,10,12,8,22,0.00,0,,269
2012-10-12,62,54,43,46,38,24,82,61,43,30.33,30.12,30.04,10,10,10,10,8,22,0.00,3,Rain,279
2012-10-13,51,44,37,35,30,28,76,54,43,30.46,30.41,30.36,10,10,10,8,5,,0.00,1,,294
2012-10-14,64,57,51,58,52,39,90,78,63,30.33,30.16,30.03,10,10,10,16,11,29,0.01,5,Rain,220
2012-10-15,70,66,61,63,61,58,94,87,76,30.02,29.83,29.65,10,10,10,14,11,25,0.01,2,,208
2012-10-16,63,52,41,61,49,38,100,81,51,29.86,29.65,29.55,10,10,6,9,4,22,0.12,4,Rain,274
2012-10-17,57,46,37,44,41,35,93,80,60,30.03,29.96,29.87,10,10,10,5,1,,0.00,0,,306
2012-10-18,61,52,44,54,48,42,97,82,64,30.14,30.10,30.04,10,10,10,7,2,,0.01,0,,127
2012-10-19,64,60,57,63,59,54,100,89,75,30.09,29.94,29.81,10,9,5,15,9,26,0.01,5,Rain,132
2012-10-20,66,62,59,64,62,57,100,95,88,29.81,29.71,29.66,10,5,0,12,8,22,0.17,7,Fog-Rain,205
2012-10-21,63,54,46,51,43,40,83,65,50,29.91,29.87,29.78,10,10,10,9,5,18,0.00,1,,272
2012-10-22,64,57,50,45,42,40,74,63,46,29.98,29.92,29.90,10,10,10,9,5,22,0.00,1,,290
2012-10-23,60,54,48,51,46,42,93,73,53,30.11,30.07,30.00,10,10,10,9,3,18,0.00,0,,312
2012-10-24,55,50,43,51,45,41,93,75,64,30.22,30.17,30.12,10,10,9,13,3,,0.00,7,Rain,36
2012-10-25,60,51,42,46,43,39,93,77,53,30.32,30.28,30.24,10,10,1,6,2,,0.00,0,,62
2012-10-26,62,52,42,51,44,37,97,76,42,30.28,30.22,30.15,10,10,10,7,1,,0.00,0,,185
2012-10-27,62,54,46,53,47,41,97,78,48,30.13,30.05,29.99,10,10,10,15,4,18,0.00,1,,59
2012-10-28,57,55,53,54,51,49,94,84,74,29.99,29.87,29.69,10,9,3,24,15,34,0.03,8,Rain,60
2012-10-29,63,59,55,61,58,53,96,91,86,29.66,29.35,29.18,7,4,2,34,24,52,0.25,8,Rain,82
2012-10-30,66,62,60,59,57,56,93,86,80,29.61,29.53,29.36,10,9,6,13,9,22,0.00,7,Rain,128
2012-10-31,61,57,53,56,51,45,94,82,69,29.60,29.56,29.51,10,10,4,10,7,22,0.02,6,Rain,213